Location: Bois de Gannes
(12.0333°N, 61.7000°W)
Time: 06:54:14
(UTC+00:00)

Daily predictions for brighter satellites

Satellite Brightness Start Highest point End
(mag) Time Altitude Azimuth Time Altitude Azimuth Time Altitude Azimuth
Cosmos 1900 4.3 22:47:21 10° SSW 22:52:12 86° ESE 22:57:06 10° NNE
Cosmos 1408 Rocket 3.9 22:51:20 10° SSE 22:55:34 45° E 22:59:49 10° NNE
Abrixas rocket 2.4 22:53:25 10° NNW 22:56:10 42° NE 22:58:54 10° ESE
Okean 3 Rocket 4.0 22:52:47 10° SSW 22:57:07 67° W 23:01:28 10° N
Okean-O 2.9 22:58:18 10° S 23:02:42 72° WSW 23:07:06 10° NNW
HJ-1C 4.5 23:01:52 10° SE 23:04:43 26° ENE 23:07:32 10° NNE
COSMOS 2406 3.5 23:01:45 10° S 23:07:12 45° ESE 23:12:38 10° NNE
Yuri Rocket 2.9 23:06:00 10° WSW 23:10:42 77° SSE 23:14:49 10° ENE
Cosmos 2366 rocket 4.1 23:08:46 10° SSE 23:14:51 52° E 23:20:53 10° NNE
CZ-4 R/B 2.0 23:12:35 10° S 23:16:21 55° W 23:20:09 10° NNW
Longmarch 3A Rocket 1.8 23:16:55 10° SSW 23:18:07 19° SSE 23:18:07 19° SSE
Cosmos 1500 Rocket 4.0 23:15:00 10° SSE 23:18:58 36° E 23:22:55 10° NNE
CZ-2C R/B 3.1 23:14:22 10° SSE 23:19:18 50° ENE 23:23:59 10° N
CSL-04 Rocket 3.6 23:15:41 10° SSE 23:20:59 68° ENE 23:26:14 10° N
Cosmos 2082 Rocket 3.4 23:18:03 10° SSE 23:22:00 19° ESE 23:25:56 10° ENE
SL-8 Rocket 4.0 23:20:54 10° S 23:27:03 88° W 23:33:14 10° N
SJ-11-01 4.3 23:22:27 10° SSE 23:27:04 60° ENE 23:31:42 10° N
MOS 1 Rocket 3.7 23:21:55 10° N 23:27:15 78° WNW 23:32:20 10° SSW
Ariane Rocket 4.1 23:28:13 21° ESE 23:29:49 25° ENE 23:33:53 10° NNE
Cosmos 407 Rocket 4.1 23:29:50 10° SSE 23:34:39 35° E 23:39:26 10° NE
VEP-3 3.7 23:31:05 10° NW 23:36:14 42° NNE 23:43:15 16° E
ARGOS 3.4 23:33:55 18° SE 23:37:41 48° ENE 23:42:49 10° N
Cosmos 1805 Rocket 4.5 23:42:44 29° ENE 23:42:44 29° ENE 23:45:56 10° NNE
H-2A ROCKET BODY 2.6 23:39:34 10° WNW 23:43:11 73° SSW 23:49:53 24° SE
Cosmos 405 3.1 23:40:42 10° N 23:43:59 48° E 23:43:59 48° E
Cosmos 1328 Rocket 3.4 23:42:02 10° N 23:46:27 77° E 23:49:12 23° S
H-2A R/B 2.0 23:44:17 10° SSE 23:49:37 87° W 23:54:48 10° NNW
Cosmos 1933 3.4 23:47:38 10° N 23:51:43 79° W 23:54:09 23° S
Cosmos 1782 4.2 23:49:37 10° NNE 23:51:47 25° NE 23:51:47 25° NE
